User: anonymous   Login
Location: Unspecified
(0.0000°N, 0.0000°E)
Time: 07:35:51
(UTC+00:00)
Language:

Tancredo 1 - Orbit

View from above orbital plane
View from above orbital plane
View from above satellite
View from above satellite

Ground track
Ground track

The orbit data is extracted from the following two-line orbital elements,

1 41931U 98067KT  17290.00199572  .03889717  11947-4  14627-2 0  9991
2 41931  51.6202 121.3665 0009808 281.6220  78.4828 16.23461432 42832
Epoch (UTC): 17 October 2017 00:02:52
Eccentricity: 0.0009808
inclination: 51.6202°
perigee height: 204 km
apogee height: 216 km
right ascension of ascending node: 121.3665°
argument of perigee: 281.6220°
revolutions per day: 16.23461432
mean anomaly at epoch: 78.4828°
orbit number at epoch: 4283

The dashed part of the orbit path shows where the satellite is in the earth's shadow,  

DLR